Voltar ao catálogo

ONEWEB-0665

AtivoComunicaçõesPO
NORAD 55825·PAYLOAD·🇬🇧 United Kingdom

Lançado Mar 9, 2023 de Cape Canaveral Space Force Station

Loading…

Próximas Passagens (próximas 24 horas)

TLE

AtualizadoSource: CelesTrak SupGP

Época: Sep 14, 2026, 18:16 UTC

1 55825C 23029AF  26257.76125414 -.00000990  00000+0 -26725-2 0  2573
2 55825  87.8889 271.8546 0002075  86.2743 331.5114 13.14499310    16

Acompanhe ONEWEB-0665 em tempo real com AllMySat

Download on the App Store